Time,TemperatureF,DewpointF,PressureIn,WindDirection,WindDirectionDegrees,WindSpeedMPH,WindSpeedGustMPH,Humidity,HourlyPrecipIn,Conditions,Clouds,dailyrainin,SoftwareType,DateUTC
2013-08-22 00:01:00,61.0,59.0,30.09,NNE,15,0.0,0.0,93,0.00,,SKC,0.01,VWS V14.01,2013-08-22 04:01:00,
2013-08-22 00:06:00,60.9,58.9,30.09,NNE,16,0.0,0.0,93,0.00,,SKC,0.00,VWS V14.01,2013-08-22 04:06:00,
2013-08-22 00:11:00,60.8,58.8,30.09,NNE,16,0.0,0.0,93,0.00,,SKC,0.00,VWS V14.01,2013-08-22 04:11:00,
2013-08-22 00:16:00,60.7,58.7,30.09,NNE,15,0.0,0.0,93,0.00,,SKC,0.00,VWS V14.01,2013-08-22 04:16:00,
2013-08-22 00:21:00,60.6,58.6,30.09,NNE,15,0.0,0.0,93,0.00,,SKC,0.00,VWS V14.01,2013-08-22 04:21:00,
2013-08-22 00:26:00,60.5,58.8,30.09,NNE,16,0.0,0.0,94,0.00,,SKC,0.00,VWS V14.01,2013-08-22 04:26:00,
2013-08-22 00:31:00,60.5,58.5,30.09,NNE,16,0.0,0.0,93,0.00,,SKC,0.00,VWS V14.01,2013-08-22 04:31:00,
2013-08-22 00:36:00,60.5,58.8,30.09,NNE,15,0.0,0.0,94,0.00,,SKC,0.00,VWS V14.01,2013-08-22 04:36:00,
2013-08-22 00:41:00,60.5,58.8,30.09,NNE,15,0.0,0.0,94,0.00,,SKC,0.00,VWS V14.01,2013-08-22 04:41:00,
2013-08-22 00:46:00,60.5,58.8,30.09,NNE,16,0.0,0.0,94,0.00,,SKC,0.00,VWS V14.01,2013-08-22 04:46:00,
2013-08-22 00:51:00,60.5,58.8,30.09,NNE,16,0.0,0.0,94,0.00,,SKC,0.00,VWS V14.01,2013-08-22 04:51:00,
2013-08-22 00:56:00,60.5,58.8,30.09,NNE,16,0.0,0.0,94,0.00,,SKC,0.00,VWS V14.01,2013-08-22 04:56:00,
2013-08-22 01:01:00,60.4,58.7,30.09,NNE,15,0.0,0.0,94,0.00,,SKC,0.00,VWS V14.01,2013-08-22 05:01:00,
2013-08-22 01:06:00,60.3,58.6,30.09,NNE,15,0.0,0.0,94,0.00,,SKC,0.00,VWS V14.01,2013-08-22 05:06:00,
2013-08-22 01:11:00,60.2,58.5,30.09,NNE,15,0.0,0.0,94,0.00,,SKC,0.00,VWS V14.01,2013-08-22 05:11:00,
2013-08-22 01:16:00,60.3,58.6,30.09,NNE,15,0.0,0.0,94,0.00,,SKC,0.00,VWS V14.01,2013-08-22 05:16:00,
2013-08-22 01:21:00,60.3,58.6,30.09,NNE,16,0.0,0.0,94,0.00,,SKC,0.00,VWS V14.01,2013-08-22 05:21:00,
2013-08-22 01:26:00,60.3,58.6,30.09,NNE,16,0.0,0.0,94,0.00,,SKC,0.00,VWS V14.01,2013-08-22 05:26:00,
2013-08-22 01:31:00,60.2,58.5,30.09,NNE,16,0.0,0.0,94,0.00,,SKC,0.00,VWS V14.01,2013-08-22 05:31:00,
2013-08-22 01:36:00,60.1,58.4,30.09,NNE,16,0.0,0.0,94,0.00,,SKC,0.00,VWS V14.01,2013-08-22 05:36:00,
2013-08-22 01:41:00,60.0,58.3,30.09,NNE,15,0.0,0.0,94,0.00,,SKC,0.00,VWS V14.01,2013-08-22 05:41:00,
2013-08-22 01:46:00,60.1,58.4,30.09,NNE,15,0.0,0.0,94,0.00,,SKC,0.00,VWS V14.01,2013-08-22 05:46:00,
2013-08-22 01:50:00,60.1,58.4,30.09,NNE,16,0.0,0.0,94,0.00,,SKC,0.00,VWS V14.01,2013-08-22 05:50:00,
2013-08-22 01:55:00,60.0,58.3,30.09,NNE,16,0.0,0.0,94,0.00,,SKC,0.00,VWS V14.01,2013-08-22 05:55:00,
2013-08-22 02:00:00,59.9,58.2,30.09,NNE,16,0.0,0.0,94,0.00,,SKC,0.00,VWS V14.01,2013-08-22 06:00:00,
2013-08-22 02:05:00,59.8,58.1,30.09,NNE,15,0.0,0.0,94,0.00,,SKC,0.00,VWS V14.01,2013-08-22 06:05:00,
2013-08-22 02:10:00,59.8,58.1,30.09,NNE,16,0.0,0.0,94,0.00,,SKC,0.00,VWS V14.01,2013-08-22 06:10:00,
2013-08-22 02:15:00,59.8,58.4,30.09,NNE,16,0.0,0.0,95,0.00,,SKC,0.00,VWS V14.01,2013-08-22 06:15:00,
2013-08-22 02:20:00,59.9,58.2,30.09,NNE,16,0.0,0.0,94,0.00,,SKC,0.00,VWS V14.01,2013-08-22 06:20:00,
2013-08-22 02:25:00,59.7,58.3,30.09,NNE,16,0.0,0.0,95,0.00,,SKC,0.00,VWS V14.01,2013-08-22 06:25:00,
2013-08-22 02:30:00,59.6,58.2,30.09,NNE,16,0.0,1.0,95,0.00,,SKC,0.00,VWS V14.01,2013-08-22 06:30:00,
2013-08-22 02:35:00,59.6,58.2,30.09,NNE,16,0.0,0.0,95,0.00,,SKC,0.00,VWS V14.01,2013-08-22 06:35:00,
2013-08-22 02:40:00,59.5,58.1,30.09,NNE,16,0.0,0.0,95,0.00,,SKC,0.00,VWS V14.01,2013-08-22 06:40:00,
2013-08-22 02:45:00,59.3,57.6,30.09,NNE,16,0.0,0.0,94,0.00,,SKC,0.00,VWS V14.01,2013-08-22 06:45:00,
2013-08-22 02:50:00,59.3,57.6,30.09,NNE,15,0.0,0.0,94,0.00,,SKC,0.00,VWS V14.01,2013-08-22 06:50:00,
2013-08-22 02:55:00,59.3,57.9,30.09,NNE,16,0.0,0.0,95,0.00,,SKC,0.00,VWS V14.01,2013-08-22 06:55:00,
2013-08-22 03:00:00,59.3,57.9,30.09,NNE,16,0.0,0.0,95,0.00,,SKC,0.00,VWS V14.01,2013-08-22 07:00:00,
2013-08-22 03:05:00,59.3,57.9,30.09,NNE,16,0.0,0.0,95,0.00,,SKC,0.00,VWS V14.01,2013-08-22 07:05:00,
2013-08-22 03:10:00,59.2,57.8,30.09,NNE,15,0.0,0.0,95,0.00,,SKC,0.00,VWS V14.01,2013-08-22 07:10:00,
2013-08-22 03:15:00,59.0,57.6,30.09,NNE,16,0.0,0.0,95,0.00,,SKC,0.00,VWS V14.01,2013-08-22 07:15:00,
2013-08-22 03:20:00,59.0,57.6,30.09,NNE,16,0.0,0.0,95,0.00,,SKC,0.00,VWS V14.01,2013-08-22 07:20:00,
2013-08-22 03:25:00,59.1,57.7,30.09,NNE,16,0.0,0.0,95,0.00,,SKC,0.00,VWS V14.01,2013-08-22 07:25:00,
2013-08-22 03:30:00,59.1,57.7,30.09,NNE,16,0.0,0.0,95,0.00,,SKC,0.00,VWS V14.01,2013-08-22 07:30:00,
2013-08-22 03:35:00,59.2,57.8,30.09,NNE,15,0.0,0.0,95,0.00,,SKC,0.00,VWS V14.01,2013-08-22 07:35:00,
2013-08-22 03:40:00,59.3,57.9,30.09,NNE,16,0.0,0.0,95,0.00,,SKC,0.00,VWS V14.01,2013-08-22 07:40:00,
2013-08-22 03:45:00,59.3,57.9,30.09,NNE,15,0.0,0.0,95,0.00,,SKC,0.00,VWS V14.01,2013-08-22 07:45:00,
2013-08-22 03:50:00,59.2,57.8,30.09,NNE,16,0.0,0.0,95,0.00,,SKC,0.00,VWS V14.01,2013-08-22 07:50:00,
2013-08-22 03:55:00,59.2,57.8,30.09,NNE,15,0.0,0.0,95,0.00,,SKC,0.00,VWS V14.01,2013-08-22 07:55:00,
2013-08-22 04:00:00,59.3,57.9,30.09,NNE,15,0.0,0.0,95,0.00,,SKC,0.00,VWS V14.01,2013-08-22 08:00:00,
2013-08-22 04:05:00,59.5,58.1,30.09,NNE,16,0.0,0.0,95,0.00,,SKC,0.00,VWS V14.01,2013-08-22 08:05:00,
2013-08-22 04:10:00,59.6,58.2,30.09,NNE,16,0.0,0.0,95,0.00,,SKC,0.00,VWS V14.01,2013-08-22 08:10:00,
2013-08-22 04:15:00,59.8,58.4,30.09,NNE,16,0.0,1.0,95,0.00,,SKC,0.00,VWS V14.01,2013-08-22 08:15:00,
2013-08-22 04:20:00,59.8,58.4,30.09,NNE,15,0.0,0.0,95,0.00,,SKC,0.00,VWS V14.01,2013-08-22 08:20:00,
2013-08-22 04:25:00,59.9,58.5,30.09,NNE,16,0.0,0.0,95,0.00,,SKC,0.00,VWS V14.01,2013-08-22 08:25:00,
2013-08-22 04:30:00,59.9,58.5,30.09,NNE,16,0.0,0.0,95,0.00,,SKC,0.00,VWS V14.01,2013-08-22 08:30:00,
2013-08-22 04:35:00,59.9,58.5,30.09,NNE,16,0.0,0.0,95,0.00,,SKC,0.00,VWS V14.01,2013-08-22 08:35:00,
2013-08-22 04:40:00,59.9,58.5,30.09,NNE,16,0.0,0.0,95,0.00,,SKC,0.00,VWS V14.01,2013-08-22 08:40:00,
2013-08-22 04:45:00,60.0,58.6,30.09,NNE,15,0.0,0.0,95,0.00,,SKC,0.00,VWS V14.01,2013-08-22 08:45:00,
2013-08-22 04:50:00,60.0,58.6,30.09,NNE,15,0.0,0.0,95,0.00,,SKC,0.00,VWS V14.01,2013-08-22 08:50:00,
2013-08-22 04:55:00,60.0,58.6,30.09,NNE,16,0.0,0.0,95,0.00,,SKC,0.00,VWS V14.01,2013-08-22 08:55:00,
2013-08-22 05:00:00,60.0,58.6,30.09,NNE,16,0.0,0.0,95,0.00,,SKC,0.00,VWS V14.01,2013-08-22 09:00:00,
2013-08-22 05:05:00,59.9,58.5,30.09,NNE,15,0.0,0.0,95,0.00,,SKC,0.00,VWS V14.01,2013-08-22 09:05:00,
2013-08-22 05:10:00,59.9,58.5,30.09,NNE,16,0.0,0.0,95,0.00,,SKC,0.00,VWS V14.01,2013-08-22 09:10:00,
2013-08-22 05:15:00,59.8,58.4,30.09,NNE,16,0.0,0.0,95,0.00,,SKC,0.00,VWS V14.01,2013-08-22 09:15:00,
2013-08-22 05:20:00,59.8,58.4,30.09,NNE,15,0.0,0.0,95,0.00,,SKC,0.00,VWS V14.01,2013-08-22 09:20:00,
2013-08-22 05:25:00,59.6,58.2,30.09,NNE,15,0.0,0.0,95,0.00,,SKC,0.00,VWS V14.01,2013-08-22 09:25:00,
2013-08-22 05:30:00,59.6,58.2,30.09,NNE,15,0.0,0.0,95,0.00,,SKC,0.00,VWS V14.01,2013-08-22 09:30:00,
2013-08-22 05:35:00,59.6,58.2,30.09,NNE,16,0.0,0.0,95,0.00,,SKC,0.00,VWS V14.01,2013-08-22 09:35:00,
2013-08-22 05:40:00,59.7,58.3,30.09,NNE,16,0.0,0.0,95,0.00,,SKC,0.00,VWS V14.01,2013-08-22 09:40:00,
2013-08-22 05:45:00,59.7,58.3,30.09,NNE,16,0.0,0.0,95,0.00,,SKC,0.00,VWS V14.01,2013-08-22 09:45:00,
2013-08-22 05:50:00,59.8,58.4,30.09,NNE,16,0.0,0.0,95,0.00,,SKC,0.00,VWS V14.01,2013-08-22 09:50:00,
2013-08-22 05:55:00,59.8,58.4,30.09,NNE,15,0.0,0.0,95,0.00,,SKC,0.00,VWS V14.01,2013-08-22 09:55:00,
2013-08-22 06:00:00,59.9,58.5,30.09,NNE,15,0.0,0.0,95,0.00,,SKC,0.00,VWS V14.01,2013-08-22 10:00:00,
2013-08-22 06:05:00,60.0,58.6,30.09,NNE,16,0.0,0.0,95,0.00,,SKC,0.00,VWS V14.01,2013-08-22 10:05:00,
2013-08-22 06:10:00,60.0,58.6,30.09,NNE,16,0.0,0.0,95,0.00,,SKC,0.00,VWS V14.01,2013-08-22 10:10:00,
2013-08-22 06:15:00,59.9,58.5,30.09,NNE,16,0.0,1.0,95,0.00,,SKC,0.00,VWS V14.01,2013-08-22 10:15:00,
2013-08-22 06:20:00,59.8,58.4,30.09,NNE,16,0.0,0.0,95,0.00,,SKC,0.00,VWS V14.01,2013-08-22 10:20:00,
2013-08-22 06:25:00,59.8,58.4,30.09,NNE,15,0.0,0.0,95,0.00,,SKC,0.00,VWS V14.01,2013-08-22 10:25:00,
2013-08-22 06:30:00,59.8,58.4,30.09,NNE,15,0.0,0.0,95,0.00,,SKC,0.00,VWS V14.01,2013-08-22 10:30:00,
2013-08-22 06:35:00,59.9,58.5,30.09,NNE,15,0.0,0.0,95,0.00,,SKC,0.00,VWS V14.01,2013-08-22 10:35:00,
2013-08-22 06:40:00,60.0,58.6,30.09,NNE,16,0.0,0.0,95,0.00,,SKC,0.00,VWS V14.01,2013-08-22 10:40:00,
2013-08-22 06:45:00,60.0,58.6,30.09,NNE,15,0.0,0.0,95,0.00,,SKC,0.00,VWS V14.01,2013-08-22 10:45:00,
2013-08-22 08:27:00,61.3,60.2,30.09,NW,319,0.0,0.0,96,0.00,,SKC,0.00,VWS V14.01,2013-08-22 12:27:00,
2013-08-22 08:32:00,61.5,60.3,30.09,NW,319,0.0,0.0,96,0.00,,SKC,0.00,VWS V14.01,2013-08-22 12:32:00,
2013-08-22 08:37:00,61.5,60.3,30.09,NW,319,0.0,0.0,96,0.00,,SKC,0.00,VWS V14.01,2013-08-22 12:37:00,
2013-08-22 08:42:00,61.6,60.5,30.09,NW,319,0.0,0.0,96,0.00,,SKC,0.00,VWS V14.01,2013-08-22 12:42:00,
2013-08-22 08:47:00,61.8,60.7,30.09,NW,319,0.0,0.0,96,0.00,,SKC,0.00,VWS V14.01,2013-08-22 12:47:00,
2013-08-22 08:52:00,62.1,61.0,30.09,NW,319,0.0,0.0,96,0.00,,SKC,0.00,VWS V14.01,2013-08-22 12:52:00,
2013-08-22 08:57:00,62.2,61.0,30.09,NW,319,0.0,0.0,96,0.00,,SKC,0.00,VWS V14.01,2013-08-22 12:57:00,
2013-08-22 09:00:00,62.2,61.0,30.09,NW,319,0.0,0.0,96,0.00,,SKC,0.00,VWS V14.01,2013-08-22 13:00:00,
2013-08-22 09:05:00,62.3,61.2,30.09,NW,319,0.0,0.0,96,0.00,,SKC,0.00,VWS V14.01,2013-08-22 13:05:00,
2013-08-22 09:10:00,62.5,61.3,30.09,NW,319,0.0,2.0,96,0.00,,SKC,0.00,VWS V14.01,2013-08-22 13:10:00,
2013-08-22 09:15:00,62.6,61.5,30.09,NW,319,0.0,0.0,96,0.00,,SKC,0.00,VWS V14.01,2013-08-22 13:15:00,
2013-08-22 09:20:00,62.4,61.2,30.09,NNW,345,0.0,0.0,96,0.00,,SKC,0.00,VWS V14.01,2013-08-22 13:20:00,
2013-08-22 09:25:00,62.6,61.5,30.09,NNW,345,1.0,1.0,96,0.00,,SKC,0.00,VWS V14.01,2013-08-22 13:25:00,
2013-08-22 09:30:00,63.1,61.9,30.09,NNW,346,0.0,3.0,96,0.00,,SKC,0.00,VWS V14.01,2013-08-22 13:30:00,
2013-08-22 09:35:00,63.3,62.1,30.09,NNW,345,2.0,2.0,96,0.00,,SKC,0.00,VWS V14.01,2013-08-22 13:35:00,
2013-08-22 09:40:00,63.4,62.2,30.09,NNW,346,0.0,0.0,96,0.00,,SKC,0.00,VWS V14.01,2013-08-22 13:40:00,
2013-08-22 09:45:00,63.9,62.7,30.09,NNW,346,0.0,0.0,96,0.00,,SKC,0.00,VWS V14.01,2013-08-22 13:45:00,
2013-08-22 09:50:00,64.1,62.9,30.09,NNW,346,0.0,1.0,96,0.00,,SKC,0.00,VWS V14.01,2013-08-22 13:50:00,
2013-08-22 09:55:00,64.7,63.5,30.09,NNW,346,0.0,0.0,96,0.00,,SKC,0.00,VWS V14.01,2013-08-22 13:55:00,
2013-08-22 10:00:00,65.1,63.9,30.09,NNW,345,0.0,0.0,96,0.00,,SKC,0.00,VWS V14.01,2013-08-22 14:00:00,
2013-08-22 10:05:00,65.8,64.6,30.09,NNW,346,0.0,0.0,96,0.00,,SKC,0.00,VWS V14.01,2013-08-22 14:05:00,
2013-08-22 10:10:00,66.6,65.1,30.09,NNW,345,2.0,2.0,95,0.00,,SKC,0.00,VWS V14.01,2013-08-22 14:10:00,
2013-08-22 10:15:00,67.2,65.1,30.09,NNW,345,1.0,2.0,93,0.00,,SKC,0.00,VWS V14.01,2013-08-22 14:15:00,
2013-08-22 10:20:00,68.1,65.1,30.09,NNW,346,0.0,0.0,90,0.00,,SKC,0.00,VWS V14.01,2013-08-22 14:20:00,
2013-08-22 10:25:00,69.2,65.5,30.09,NNW,346,0.0,0.0,88,0.00,,SKC,0.00,VWS V14.01,2013-08-22 14:25:00,
2013-08-22 10:30:00,70.0,65.6,30.09,NNW,345,0.0,0.0,86,0.00,,SKC,0.00,VWS V14.01,2013-08-22 14:30:00,
2013-08-22 10:35:00,70.5,65.4,30.09,NNW,346,1.0,3.0,84,0.00,,SKC,0.00,VWS V14.01,2013-08-22 14:35:00,
2013-08-22 10:40:00,70.8,65.7,30.09,NNW,346,3.0,3.0,84,0.00,,SKC,0.00,VWS V14.01,2013-08-22 14:40:00,
2013-08-22 10:45:00,71.3,65.9,30.09,NNW,345,2.0,3.0,83,0.00,,SKC,0.00,VWS V14.01,2013-08-22 14:45:00,
2013-08-22 10:50:00,72.1,66.3,30.09,NNW,346,0.0,1.0,82,0.00,,SKC,0.00,VWS V14.01,2013-08-22 14:50:00,
2013-08-22 10:55:00,72.8,66.6,30.09,NNW,346,0.0,2.0,81,0.00,,SKC,0.00,VWS V14.01,2013-08-22 14:55:00,
2013-08-22 11:00:00,73.3,66.4,30.09,ESE,113,1.0,1.0,79,0.00,,SKC,0.00,VWS V14.01,2013-08-22 15:00:00,
2013-08-22 11:05:00,73.3,66.4,30.09,ESE,113,0.0,0.0,79,0.00,,SKC,0.00,VWS V14.01,2013-08-22 15:05:00,
2013-08-22 11:10:00,73.8,66.5,30.09,ESE,115,1.0,2.0,78,0.00,,SKC,0.00,VWS V14.01,2013-08-22 15:10:00,
2013-08-22 11:15:00,74.4,67.8,30.09,ESE,106,2.0,3.0,80,0.00,,SKC,0.00,VWS V14.01,2013-08-22 15:15:00,
2013-08-22 11:20:00,74.9,67.2,30.09,East,101,2.0,3.0,77,0.00,,SKC,0.00,VWS V14.01,2013-08-22 15:20:00,
2013-08-22 11:25:00,74.8,66.7,30.09,East,101,0.0,1.0,76,0.00,,SKC,0.00,VWS V14.01,2013-08-22 15:25:00,
2013-08-22 11:30:00,75.3,67.6,30.09,East,101,0.0,0.0,77,0.00,,SKC,0.00,VWS V14.01,2013-08-22 15:30:00,
2013-08-22 11:35:00,76.5,69.1,30.09,ESE,103,2.0,2.0,78,0.00,,SKC,0.00,VWS V14.01,2013-08-22 15:35:00,
2013-08-22 11:40:00,77.6,68.3,30.09,ESE,109,3.0,3.0,73,0.00,,SKC,0.00,VWS V14.01,2013-08-22 15:40:00,
2013-08-22 11:45:00,77.4,67.7,30.09,North,360,1.0,3.0,72,0.00,,SKC,0.00,VWS V14.01,2013-08-22 15:45:00,
2013-08-22 11:50:00,78.0,67.8,30.09,North,5,3.0,3.0,71,0.00,,SKC,0.00,VWS V14.01,2013-08-22 15:50:00,
2013-08-22 11:55:00,78.7,68.5,30.09,North,360,1.0,3.0,71,0.00,,SKC,0.00,VWS V14.01,2013-08-22 15:55:00,
2013-08-22 12:00:00,77.9,67.3,30.09,North,10,0.0,2.0,70,0.00,,SKC,0.00,VWS V14.01,2013-08-22 16:00:00,
2013-08-22 12:05:00,77.5,66.9,30.09,North,11,0.0,1.0,70,0.00,,SKC,0.00,VWS V14.01,2013-08-22 16:05:00,
2013-08-22 12:10:00,77.5,66.9,30.09,North,11,1.0,1.0,70,0.00,,SKC,0.00,VWS V14.01,2013-08-22 16:10:00,
2013-08-22 12:15:00,78.1,67.5,30.09,North,5,1.0,4.0,70,0.00,,SKC,0.00,VWS V14.01,2013-08-22 16:15:00,
2013-08-22 12:20:00,78.7,67.7,30.09,NNE,19,0.0,1.0,69,0.00,,SKC,0.00,VWS V14.01,2013-08-22 16:20:00,
2013-08-22 12:25:00,79.2,67.3,30.09,NNE,19,0.0,0.0,67,0.00,,SKC,0.00,VWS V14.01,2013-08-22 16:25:00,
2013-08-22 12:30:00,79.8,69.2,30.09,NNE,19,0.0,0.0,70,0.00,,SKC,0.00,VWS V14.01,2013-08-22 16:30:00,
2013-08-22 12:35:00,80.2,67.8,30.09,NNE,20,0.0,1.0,66,0.00,,SKC,0.00,VWS V14.01,2013-08-22 16:35:00,
2013-08-22 12:39:00,80.6,66.8,30.09,NNE,20,1.0,1.0,63,0.00,,SKC,0.00,VWS V14.01,2013-08-22 16:39:00,
2013-08-22 12:44:00,80.9,66.7,30.09,NNE,20,0.0,0.0,62,0.00,,SKC,0.00,VWS V14.01,2013-08-22 16:44:00,
2013-08-22 12:49:00,81.2,68.8,30.09,NNE,18,0.0,0.0,66,0.00,,SKC,0.00,VWS V14.01,2013-08-22 16:49:00,
2013-08-22 12:54:00,80.3,67.5,30.09,NNE,18,2.0,2.0,65,0.00,,SKC,0.00,VWS V14.01,2013-08-22 16:54:00,
2013-08-22 12:59:00,80.1,67.3,30.09,NNE,18,0.0,1.0,65,0.00,,SKC,0.00,VWS V14.01,2013-08-22 16:59:00,
2013-08-22 13:04:00,80.0,66.3,30.09,NNE,18,1.0,5.0,63,0.00,,SKC,0.00,VWS V14.01,2013-08-22 17:04:00,
2013-08-22 13:09:00,79.5,66.7,30.09,NNE,18,0.0,0.0,65,0.00,,SKC,0.00,VWS V14.01,2013-08-22 17:09:00,
2013-08-22 13:14:00,79.3,67.0,30.09,NNE,18,0.0,0.0,66,0.00,,SKC,0.00,VWS V14.01,2013-08-22 17:14:00,
2013-08-22 13:19:00,80.0,67.6,30.09,NNE,17,0.0,2.0,66,0.00,,SKC,0.00,VWS V14.01,2013-08-22 17:19:00,
2013-08-22 13:24:00,80.8,67.0,30.09,NNE,17,1.0,2.0,63,0.00,,SKC,0.00,VWS V14.01,2013-08-22 17:24:00,
2013-08-22 13:29:00,80.7,66.5,30.09,North,5,0.0,0.0,62,0.00,,SKC,0.00,VWS V14.01,2013-08-22 17:29:00,
2013-08-22 13:34:00,80.4,66.2,30.09,North,9,1.0,1.0,62,0.00,,SKC,0.00,VWS V14.01,2013-08-22 17:34:00,
2013-08-22 13:39:00,80.4,68.0,30.09,North,9,0.0,0.0,66,0.00,,SKC,0.00,VWS V14.01,2013-08-22 17:39:00,
2013-08-22 13:44:00,80.7,67.4,30.09,ENE,67,3.0,3.0,64,0.00,,SKC,0.00,VWS V14.01,2013-08-22 17:44:00,
2013-08-22 13:49:00,80.9,66.7,30.09,ENE,57,0.0,0.0,62,0.00,,SKC,0.00,VWS V14.01,2013-08-22 17:49:00,
2013-08-22 13:54:00,81.3,67.5,30.09,ENE,58,0.0,0.0,63,0.00,,SKC,0.00,VWS V14.01,2013-08-22 17:54:00,
2013-08-22 13:59:00,80.9,66.7,30.09,NE,40,2.0,3.0,62,0.00,,SKC,0.00,VWS V14.01,2013-08-22 17:59:00,
2013-08-22 14:04:00,80.2,66.9,30.09,North,355,2.0,2.0,64,0.00,,SKC,0.00,VWS V14.01,2013-08-22 18:04:00,
2013-08-22 14:09:00,79.8,67.4,30.09,North,355,0.0,0.0,66,0.00,,SKC,0.00,VWS V14.01,2013-08-22 18:09:00,
2013-08-22 14:14:00,79.5,66.7,30.09,North,355,2.0,4.0,65,0.00,,SKC,0.00,VWS V14.01,2013-08-22 18:14:00,
2013-08-22 14:19:00,79.4,67.5,30.09,North,355,4.0,4.0,67,0.00,,SKC,0.00,VWS V14.01,2013-08-22 18:19:00,
2013-08-22 14:24:00,79.8,66.6,30.09,North,5,4.0,4.0,64,0.00,,SKC,0.00,VWS V14.01,2013-08-22 18:24:00,
2013-08-22 14:29:00,80.3,67.5,30.09,North,355,3.0,3.0,65,0.00,,SKC,0.00,VWS V14.01,2013-08-22 18:29:00,
2013-08-22 14:34:00,80.7,67.4,30.09,North,355,0.0,1.0,64,0.00,,SKC,0.00,VWS V14.01,2013-08-22 18:34:00,
2013-08-22 14:39:00,80.1,66.8,30.09,NNW,344,5.0,5.0,64,0.00,,SKC,0.00,VWS V14.01,2013-08-22 18:39:00,
2013-08-22 14:44:00,79.3,66.1,30.09,North,355,1.0,2.0,64,0.00,,SKC,0.00,VWS V14.01,2013-08-22 18:44:00,
2013-08-22 14:49:00,79.1,65.4,30.09,North,355,0.0,0.0,63,0.00,,SKC,0.00,VWS V14.01,2013-08-22 18:49:00,
2013-08-22 14:54:00,79.1,65.9,30.09,North,355,1.0,2.0,64,0.00,,SKC,0.00,VWS V14.01,2013-08-22 18:54:00,
2013-08-22 14:59:00,79.7,66.9,30.09,North,355,1.0,2.0,65,0.00,,SKC,0.00,VWS V14.01,2013-08-22 18:59:00,
2013-08-22 15:04:00,80.8,67.5,30.09,North,355,1.0,2.0,64,0.00,,SKC,0.00,VWS V14.01,2013-08-22 19:04:00,
2013-08-22 15:09:00,81.7,66.0,30.09,North,355,0.0,1.0,59,0.00,,SKC,0.00,VWS V14.01,2013-08-22 19:09:00,
2013-08-22 15:14:00,82.2,66.5,30.09,ESE,106,3.0,3.0,59,0.00,,SKC,0.00,VWS V14.01,2013-08-22 19:14:00,
2013-08-22 15:19:00,81.9,66.2,30.09,SE,142,1.0,2.0,59,0.00,,SKC,0.00,VWS V14.01,2013-08-22 19:19:00,
2013-08-22 15:24:00,81.4,66.7,30.09,NNE,13,3.0,7.0,61,0.00,,SKC,0.00,VWS V14.01,2013-08-22 19:24:00,
2013-08-22 15:29:00,80.0,66.3,30.09,North,360,7.0,7.0,63,0.00,,SKC,0.00,VWS V14.01,2013-08-22 19:29:00,
2013-08-22 15:34:00,79.2,66.0,30.09,NNE,13,3.0,3.0,64,0.00,,SKC,0.00,VWS V14.01,2013-08-22 19:34:00,
2013-08-22 15:39:00,78.7,65.1,30.09,NNE,17,0.0,1.0,63,0.00,,SKC,0.00,VWS V14.01,2013-08-22 19:39:00,
2013-08-22 15:44:00,79.1,66.3,30.09,NNE,17,0.0,0.0,65,0.00,,SKC,0.00,VWS V14.01,2013-08-22 19:44:00,
2013-08-22 15:49:00,80.0,68.1,30.09,NNE,17,3.0,3.0,67,0.00,,SKC,0.00,VWS V14.01,2013-08-22 19:49:00,
2013-08-22 15:54:00,80.9,67.1,30.09,NNE,17,1.0,3.0,63,0.00,,SKC,0.00,VWS V14.01,2013-08-22 19:54:00,
2013-08-22 15:59:00,81.1,66.4,30.09,NNE,26,3.0,4.0,61,0.00,,SKC,0.00,VWS V14.01,2013-08-22 19:59:00,
2013-08-22 16:04:00,80.8,65.6,30.09,North,350,0.0,5.0,60,0.00,,SKC,0.00,VWS V14.01,2013-08-22 20:04:00,
2013-08-22 16:09:00,80.6,66.4,30.09,North,360,7.0,7.0,62,0.00,,SKC,0.00,VWS V14.01,2013-08-22 20:09:00,
2013-08-22 16:14:00,81.1,67.3,30.09,NNW,337,1.0,3.0,63,0.00,,SKC,0.00,VWS V14.01,2013-08-22 20:14:00,
2013-08-22 16:19:00,81.1,65.9,30.09,NNW,341,1.0,6.0,60,0.00,,SKC,0.00,VWS V14.01,2013-08-22 20:19:00,
2013-08-22 16:24:00,80.2,66.0,30.09,NNW,346,3.0,7.0,62,0.00,,SKC,0.00,VWS V14.01,2013-08-22 20:24:00,
2013-08-22 16:29:00,80.0,66.7,30.09,North,5,1.0,3.0,64,0.00,,SKC,0.00,VWS V14.01,2013-08-22 20:29:00,
2013-08-22 16:34:00,79.6,65.9,30.09,NNW,336,6.0,7.0,63,0.00,,SKC,0.00,VWS V14.01,2013-08-22 20:34:00,
2013-08-22 16:39:00,79.5,66.3,30.09,North,360,2.0,2.0,64,0.00,,SKC,0.00,VWS V14.01,2013-08-22 20:39:00,
2013-08-22 16:44:00,79.1,65.9,30.09,NNE,24,0.0,2.0,64,0.00,,SKC,0.00,VWS V14.01,2013-08-22 20:44:00,
2013-08-22 16:49:00,78.7,66.0,30.09,NNE,24,2.0,2.0,65,0.00,,SKC,0.00,VWS V14.01,2013-08-22 20:49:00,
2013-08-22 16:54:00,78.4,66.1,30.09,NNE,24,1.0,1.0,66,0.00,,SKC,0.00,VWS V14.01,2013-08-22 20:54:00,
2013-08-22 16:59:00,78.0,66.2,30.09,NNE,24,0.0,0.0,67,0.00,,SKC,0.00,VWS V14.01,2013-08-22 20:59:00,
2013-08-22 17:04:00,77.7,66.3,30.09,North,355,2.0,7.0,68,0.00,,SKC,0.00,VWS V14.01,2013-08-22 21:04:00,
2013-08-22 17:09:00,77.5,66.5,30.09,North,355,0.0,0.0,69,0.00,,SKC,0.00,VWS V14.01,2013-08-22 21:09:00,
2013-08-22 17:14:00,78.0,65.7,30.09,North,355,1.0,3.0,66,0.00,,SKC,0.00,VWS V14.01,2013-08-22 21:14:00,
2013-08-22 17:19:00,78.7,67.3,30.09,North,355,0.0,0.0,68,0.00,,SKC,0.00,VWS V14.01,2013-08-22 21:19:00,
2013-08-22 17:24:00,79.2,66.4,30.09,NW,313,3.0,3.0,65,0.00,,SKC,0.00,VWS V14.01,2013-08-22 21:24:00,
2013-08-22 17:29:00,79.4,66.6,30.09,NNW,345,0.0,0.0,65,0.00,,SKC,0.00,VWS V14.01,2013-08-22 21:29:00,
2013-08-22 17:34:00,79.8,67.0,30.09,North,360,0.0,1.0,65,0.00,,SKC,0.00,VWS V14.01,2013-08-22 21:34:00,
2013-08-22 17:39:00,79.8,66.6,30.09,North,350,3.0,4.0,64,0.00,,SKC,0.00,VWS V14.01,2013-08-22 21:39:00,
2013-08-22 17:44:00,79.4,66.2,30.09,North,11,2.0,3.0,64,0.00,,SKC,0.00,VWS V14.01,2013-08-22 21:44:00,
2013-08-22 17:49:00,79.1,66.3,30.09,North,9,3.0,5.0,65,0.00,,SKC,0.00,VWS V14.01,2013-08-22 21:49:00,
2013-08-22 17:54:00,79.3,66.1,30.09,North,5,1.0,3.0,64,0.00,,SKC,0.00,VWS V14.01,2013-08-22 21:54:00,
2013-08-22 17:59:00,79.3,66.5,30.09,NNE,24,3.0,3.0,65,0.00,,SKC,0.00,VWS V14.01,2013-08-22 21:59:00,
2013-08-22 18:04:00,79.2,66.4,30.09,North,9,2.0,2.0,65,0.00,,SKC,0.00,VWS V14.01,2013-08-22 22:04:00,
2013-08-22 18:09:00,79.3,66.1,30.09,North,360,3.0,4.0,64,0.00,,SKC,0.00,VWS V14.01,2013-08-22 22:09:00,
2013-08-22 18:14:00,79.5,66.3,30.09,North,360,0.0,1.0,64,0.00,,SKC,0.00,VWS V14.01,2013-08-22 22:14:00,
2013-08-22 18:18:00,79.5,66.7,30.09,North,5,0.0,1.0,65,0.00,,SKC,0.00,VWS V14.01,2013-08-22 22:18:00,
2013-08-22 18:23:00,79.0,65.3,30.09,North,360,1.0,1.0,63,0.00,,SKC,0.00,VWS V14.01,2013-08-22 22:23:00,
2013-08-22 18:28:00,78.5,67.5,30.09,North,360,1.0,1.0,69,0.00,,SKC,0.00,VWS V14.01,2013-08-22 22:28:00,
2013-08-22 18:33:00,78.0,67.0,30.09,North,5,1.0,1.0,69,0.00,,SKC,0.00,VWS V14.01,2013-08-22 22:33:00,
2013-08-22 18:38:00,77.7,67.6,30.09,North,5,0.0,0.0,71,0.00,,SKC,0.00,VWS V14.01,2013-08-22 22:38:00,
2013-08-22 18:43:00,77.5,67.4,30.09,North,5,0.0,0.0,71,0.00,,SKC,0.00,VWS V14.01,2013-08-22 22:43:00,
2013-08-22 18:48:00,77.3,67.6,30.09,North,5,0.0,0.0,72,0.00,,SKC,0.00,VWS V14.01,2013-08-22 22:48:00,
2013-08-22 18:53:00,77.0,67.3,30.09,North,5,0.0,0.0,72,0.00,,SKC,0.00,VWS V14.01,2013-08-22 22:53:00,
2013-08-22 18:58:00,76.1,67.6,30.09,North,5,0.0,0.0,75,0.00,,SKC,0.00,VWS V14.01,2013-08-22 22:58:00,
2013-08-22 19:03:00,75.4,67.3,30.09,North,360,0.0,0.0,76,0.00,,SKC,0.00,VWS V14.01,2013-08-22 23:03:00,
2013-08-22 19:08:00,74.9,67.6,30.09,North,5,0.0,0.0,78,0.00,,SKC,0.00,VWS V14.01,2013-08-22 23:08:00,
2013-08-22 19:13:00,74.3,67.0,30.09,North,360,0.0,0.0,78,0.00,,SKC,0.00,VWS V14.01,2013-08-22 23:13:00,
2013-08-22 19:18:00,73.7,67.2,30.09,North,5,0.0,0.0,80,0.00,,SKC,0.00,VWS V14.01,2013-08-22 23:18:00,
2013-08-22 19:23:00,73.3,67.1,30.09,North,5,0.0,0.0,81,0.00,,SKC,0.00,VWS V14.01,2013-08-22 23:23:00,
2013-08-22 19:28:00,73.0,66.8,30.09,North,5,0.0,0.0,81,0.00,,SKC,0.00,VWS V14.01,2013-08-22 23:28:00,
2013-08-22 19:33:00,72.7,66.9,30.09,North,360,0.0,0.0,82,0.00,,SKC,0.00,VWS V14.01,2013-08-22 23:33:00,
2013-08-22 19:38:00,72.3,66.5,30.09,North,5,0.0,0.0,82,0.00,,SKC,0.00,VWS V14.01,2013-08-22 23:38:00,
2013-08-22 19:43:00,72.0,66.2,30.09,North,5,0.0,0.0,82,0.00,,SKC,0.00,VWS V14.01,2013-08-22 23:43:00,
2013-08-22 19:48:00,71.7,65.9,30.09,North,5,0.0,0.0,82,0.00,,SKC,0.00,VWS V14.01,2013-08-22 23:48:00,
2013-08-22 19:53:00,71.4,66.3,30.09,North,5,0.0,0.0,84,0.00,,SKC,0.00,VWS V14.01,2013-08-22 23:53:00,
2013-08-22 19:58:00,71.3,66.2,30.09,North,360,0.0,0.0,84,0.00,,SKC,0.00,VWS V14.01,2013-08-22 23:58:00,
2013-08-22 20:03:00,71.0,66.3,30.09,North,360,0.0,0.0,85,0.00,,SKC,0.00,VWS V14.01,2013-08-23 00:03:00,
2013-08-22 20:08:00,70.7,66.3,30.09,North,5,0.0,0.0,86,0.00,,SKC,0.00,VWS V14.01,2013-08-23 00:08:00,
2013-08-22 20:13:00,70.5,66.1,30.09,North,360,0.0,0.0,86,0.00,,SKC,0.00,VWS V14.01,2013-08-23 00:13:00,
2013-08-22 20:18:00,70.3,66.2,30.09,North,5,0.0,0.0,87,0.00,,SKC,0.00,VWS V14.01,2013-08-23 00:18:00,
2013-08-22 20:23:00,70.0,66.0,30.09,North,360,0.0,0.0,87,0.00,,SKC,0.00,VWS V14.01,2013-08-23 00:23:00,
2013-08-22 20:28:00,69.6,65.9,30.09,North,5,0.0,0.0,88,0.00,,SKC,0.00,VWS V14.01,2013-08-23 00:28:00,
2013-08-22 20:33:00,69.4,65.7,30.09,North,360,0.0,0.0,88,0.00,,SKC,0.00,VWS V14.01,2013-08-23 00:33:00,
2013-08-22 20:38:00,69.2,65.5,30.09,North,360,0.0,0.0,88,0.00,,SKC,0.00,VWS V14.01,2013-08-23 00:38:00,
2013-08-22 20:43:00,69.1,65.7,30.09,North,5,0.0,0.0,89,0.00,,SKC,0.00,VWS V14.01,2013-08-23 00:43:00,
2013-08-22 20:48:00,69.0,65.6,30.09,North,5,0.0,0.0,89,0.00,,SKC,0.00,VWS V14.01,2013-08-23 00:48:00,
2013-08-22 20:53:00,68.7,65.3,30.09,North,360,0.0,0.0,89,0.00,,SKC,0.00,VWS V14.01,2013-08-23 00:53:00,
2013-08-22 20:58:00,68.5,65.1,30.09,North,5,0.0,0.0,89,0.00,,SKC,0.00,VWS V14.01,2013-08-23 00:58:00,
2013-08-22 21:03:00,68.2,65.2,30.09,North,360,0.0,0.0,90,0.00,,SKC,0.00,VWS V14.01,2013-08-23 01:03:00,
2013-08-22 21:08:00,67.9,64.9,30.09,North,360,0.0,0.0,90,0.00,,SKC,0.00,VWS V14.01,2013-08-23 01:08:00,
2013-08-22 21:13:00,67.7,64.7,30.09,North,360,0.0,0.0,90,0.00,,SKC,0.00,VWS V14.01,2013-08-23 01:13:00,
2013-08-22 21:18:00,67.6,64.6,30.09,North,5,0.0,0.0,90,0.00,,SKC,0.00,VWS V14.01,2013-08-23 01:18:00,
2013-08-22 21:23:00,67.3,64.3,30.09,North,360,0.0,0.0,90,0.00,,SKC,0.00,VWS V14.01,2013-08-23 01:23:00,
2013-08-22 21:28:00,67.1,64.4,30.09,North,5,0.0,0.0,91,0.00,,SKC,0.00,VWS V14.01,2013-08-23 01:28:00,
2013-08-22 21:33:00,66.9,64.2,30.09,North,360,0.0,0.0,91,0.00,,SKC,0.00,VWS V14.01,2013-08-23 01:33:00,
2013-08-22 21:38:00,66.7,64.0,30.09,North,5,0.0,0.0,91,0.00,,SKC,0.00,VWS V14.01,2013-08-23 01:38:00,
2013-08-22 21:43:00,66.5,64.1,30.09,North,360,0.0,0.0,92,0.00,,SKC,0.00,VWS V14.01,2013-08-23 01:43:00,
2013-08-22 21:48:00,66.4,64.0,30.09,North,5,0.0,1.0,92,0.00,,SKC,0.00,VWS V14.01,2013-08-23 01:48:00,
2013-08-22 21:53:00,66.3,63.9,30.09,North,5,0.0,0.0,92,0.00,,SKC,0.00,VWS V14.01,2013-08-23 01:53:00,
2013-08-22 21:58:00,66.4,63.7,30.09,North,5,2.0,2.0,91,0.00,,SKC,0.00,VWS V14.01,2013-08-23 01:58:00,
2013-08-22 22:03:00,66.6,63.6,30.09,North,5,0.0,0.0,90,0.00,,SKC,0.00,VWS V14.01,2013-08-23 02:03:00,
2013-08-22 22:08:00,66.8,63.8,30.09,North,5,0.0,0.0,90,0.00,,SKC,0.00,VWS V14.01,2013-08-23 02:08:00,
2013-08-22 22:13:00,66.8,63.8,30.09,North,360,1.0,2.0,90,0.00,,SKC,0.00,VWS V14.01,2013-08-23 02:13:00,
2013-08-22 22:18:00,66.6,63.6,30.09,North,5,0.0,0.0,90,0.00,,SKC,0.00,VWS V14.01,2013-08-23 02:18:00,
2013-08-22 22:23:00,66.4,63.4,30.09,North,360,0.0,1.0,90,0.00,,SKC,0.00,VWS V14.01,2013-08-23 02:23:00,
2013-08-22 22:28:00,66.2,63.2,30.09,North,5,1.0,2.0,90,0.00,,SKC,0.00,VWS V14.01,2013-08-23 02:28:00,
2013-08-22 22:33:00,66.0,63.3,30.09,North,5,0.0,0.0,91,0.00,,SKC,0.00,VWS V14.01,2013-08-23 02:33:00,
2013-08-22 22:38:00,65.7,63.0,30.09,North,360,0.0,0.0,91,0.00,,SKC,0.00,VWS V14.01,2013-08-23 02:38:00,
2013-08-22 22:43:00,65.5,62.8,30.09,North,5,0.0,0.0,91,0.00,,SKC,0.00,VWS V14.01,2013-08-23 02:43:00,
2013-08-22 22:48:00,65.3,62.6,30.09,North,5,0.0,0.0,91,0.00,,SKC,0.00,VWS V14.01,2013-08-23 02:48:00,
2013-08-22 22:53:00,65.2,62.5,30.09,North,5,2.0,2.0,91,0.00,,SKC,0.00,VWS V14.01,2013-08-23 02:53:00,
2013-08-22 22:58:00,65.0,62.6,30.09,North,5,0.0,0.0,92,0.00,,SKC,0.00,VWS V14.01,2013-08-23 02:58:00,
2013-08-22 23:03:00,64.9,62.5,30.09,North,5,0.0,0.0,92,0.00,,SKC,0.00,VWS V14.01,2013-08-23 03:03:00,
2013-08-22 23:08:00,64.7,62.3,30.09,North,360,0.0,0.0,92,0.00,,SKC,0.00,VWS V14.01,2013-08-23 03:08:00,
2013-08-22 23:13:00,64.6,62.2,30.09,North,5,0.0,0.0,92,0.00,,SKC,0.00,VWS V14.01,2013-08-23 03:13:00,
2013-08-22 23:18:00,64.5,62.1,30.09,North,5,0.0,1.0,92,0.00,,SKC,0.00,VWS V14.01,2013-08-23 03:18:00,
2013-08-22 23:23:00,64.4,62.3,30.09,North,5,1.0,1.0,93,0.00,,SKC,0.00,VWS V14.01,2013-08-23 03:23:00,
2013-08-22 23:28:00,64.2,61.8,30.09,North,5,0.0,0.0,92,0.00,,SKC,0.00,VWS V14.01,2013-08-23 03:28:00,
2013-08-22 23:33:00,64.1,62.0,30.09,North,5,0.0,0.0,93,0.00,,SKC,0.00,VWS V14.01,2013-08-23 03:33:00,
2013-08-22 23:38:00,64.0,61.9,30.09,North,360,0.0,0.0,93,0.00,,SKC,0.00,VWS V14.01,2013-08-23 03:38:00,
2013-08-22 23:43:00,63.9,61.8,30.09,North,360,0.0,0.0,93,0.00,,SKC,0.00,VWS V14.01,2013-08-23 03:43:00,
2013-08-22 23:48:00,63.8,61.7,30.09,North,5,0.0,0.0,93,0.00,,SKC,0.00,VWS V14.01,2013-08-23 03:48:00,
2013-08-22 23:53:00,63.7,61.6,30.09,North,5,0.0,0.0,93,0.00,,SKC,0.00,VWS V14.01,2013-08-23 03:53:00,
2013-08-22 23:58:00,63.7,61.6,30.09,North,5,0.0,0.0,93,0.00,,SKC,0.00,VWS V14.01,2013-08-23 03:58:00,